Mason City, IA

7:51 PM CST on February 25, 2018 (GMT -0600)
Mason City Municipal

Weather History for KMCW - May, 2014

Change the Weather History Date:

Friday, May 30, 2014

  Actual Average Record
Temperature  
Mean Temperature 77 °F 63 °F  
Max Temperature 89 °F 75 °F 98 °F (1934)
Min Temperature 64 °F 52 °F 31 °F (1930)
Degree Days  
Heating Degree Days 0 4  
Month to date heating degree days 247 231  
Since 1 July heating degree days 8610 7631  
Cooling Degree Days 12 2  
Month to date cooling degree days 43 27  
Year to date cooling degree days 43 32  
Growing Degree Days 26 (Base 50)    
Moisture  
Dew Point 60 °F    
Average Humidity 62    
Maximum Humidity 84    
Minimum Humidity 39    
Precipitation  
Precipitation 0.00 in 0.16 in 2.83 in (1980)
Month to date precipitation 2.17 4.52  
Year to date precipitation 13.88 12.32  
Snow  
Snow 0.00 in 0.00 in - ()
Month to date snowfall 0.0 0.1  
Since 1 July snowfall 58.0 41.3  
Snow Depth 0.00 in    
Sea Level Pressure  
Sea Level Pressure 30.07 in    
Wind  
Wind Speed 10 mph (SE)    
Max Wind Speed 20 mph    
Max Gust Speed 26 mph    
Visibility 10 miles    
Events      
T = Trace of Precipitation, MM = Missing Value Source: NWS Daily Summary

Daily Weather History Graph

Daily Weather History Graph

Search for Another Location

Airport or City:

Trip Planner

Search our weather history database for the weather conditions in past years. The results will help you decide how hot, cold, wet, or windy it might be!

Date:

Astronomy

May. 30, 2014 Rise Set
Actual Time 5:37 AM CDT 8:44 PM CDT
Civil Twilight 5:03 AM CDT 9:19 PM CDT
Nautical Twilight 4:18 AM CDT 10:03 PM CDT
Astronomical Twilight 3:26 AM CDT 10:56 PM CDT
Moon 7:23 AM CDT (5/30) 10:20 PM CDT (5/30)
Length of Visible Light 16h 16m
Length of Day
15h 07m
Waxing Crescent, 4% of the Moon is Illuminated
May 30
Waxing Crescent
Jun 5
First Quarter
Jun 12
Full
Jun 19
Last Quarter
Jun 27
New

Hourly Weather History & Observations

Time (CDT) Temp. Heat Index Dew Point Humidity Pressure Visibility Wind Dir Wind Speed Gust Speed Precip Events Conditions
12:53 AM 71.1 °F - 61.0 °F 70% 30.06 in 10.0 mi SE 11.5 mph - N/A   Clear
1:53 AM 69.1 °F - 61.0 °F 75% 30.06 in 10.0 mi SE 9.2 mph - N/A   Clear
2:53 AM 68.0 °F - 61.0 °F 78% 30.06 in 10.0 mi SE 6.9 mph - N/A   Clear
3:53 AM 66.0 °F - 60.1 °F 81% 30.07 in 10.0 mi SE 5.8 mph - N/A   Clear
4:53 AM 64.9 °F - 59.0 °F 81% 30.08 in 10.0 mi SE 5.8 mph - N/A   Clear
5:53 AM 64.0 °F - 57.9 °F 80% 30.09 in 10.0 mi ESE 6.9 mph - N/A   Clear
6:53 AM 66.9 °F - 59.0 °F 76% 30.11 in 10.0 mi ESE 6.9 mph - N/A   Clear
7:53 AM 69.1 °F - 57.9 °F 68% 30.12 in 10.0 mi SE 10.4 mph - N/A   Clear
8:53 AM 73.0 °F - 59.0 °F 61% 30.11 in 10.0 mi SE 12.7 mph - N/A   Clear
9:53 AM 78.8 °F - 62.6 °F 57% 30.15 in 10.0 mi SE 10.4 mph - N/A   Clear
10:53 AM 82.0 °F 83.1 °F 63.0 °F 52% 30.10 in 10.0 mi ESE 11.5 mph 18.4 mph N/A   Clear
11:53 AM 84.0 °F 84.9 °F 63.0 °F 49% 30.09 in 10.0 mi East 12.7 mph - N/A   Partly Cloudy
12:53 PM 84.9 °F 85.0 °F 61.0 °F 44% 30.08 in 10.0 mi ESE 12.7 mph 20.7 mph N/A   Partly Cloudy
1:53 PM 86.0 °F 85.7 °F 60.1 °F 41% 30.07 in 10.0 mi ESE 15.0 mph 21.9 mph N/A   Partly Cloudy
2:53 PM 86.0 °F 85.7 °F 60.1 °F 41% 30.06 in 10.0 mi ESE 13.8 mph 23.0 mph N/A   Scattered Clouds
3:53 PM 84.9 °F 84.8 °F 60.1 °F 43% 30.05 in 10.0 mi SE 17.3 mph - N/A   Partly Cloudy
4:53 PM 87.1 °F 86.5 °F 59.0 °F 39% 30.03 in 10.0 mi ESE 12.7 mph - N/A   Scattered Clouds
5:53 PM 84.9 °F 84.8 °F 60.1 °F 43% 30.02 in 10.0 mi SE 15.0 mph - N/A   Partly Cloudy
6:53 PM 84.0 °F 84.0 °F 60.1 °F 44% 30.01 in 10.0 mi SE 10.4 mph - N/A   Mostly Cloudy
7:53 PM 81.0 °F 81.6 °F 60.1 °F 49% 30.01 in 10.0 mi SSE 10.4 mph - N/A   Clear
8:53 PM 75.9 °F - 60.1 °F 58% 30.03 in 10.0 mi SSE 6.9 mph - N/A   Clear
9:53 PM 75.9 °F - 60.1 °F 58% 30.06 in 10.0 mi SSE 8.1 mph - N/A   Mostly Cloudy
10:53 PM 73.0 °F - 60.1 °F 64% 30.07 in 10.0 mi South 5.8 mph - N/A   Clear
11:53 PM 70.0 °F - 60.1 °F 71% 30.07 in 10.0 mi SSE 5.8 mph - N/A   Clear